Meteo pe oră la Dabao'anzhen

Astăzi, 14 Aprilie, Miercuri

Timp Temperatura Precipitaţii Vânt Presiune Umiditate
00:00 +7°C° 0 mm 3 m/s 763 mmHg 23%
01:00 +7°C° 0 mm 2 m/s 763 mmHg 25%
02:00 +6°C° 0 mm 2 m/s 763 mmHg 28%
03:00 +6°C° 0 mm 2 m/s 763 mmHg 30%
04:00 +6°C° 0 mm 1 m/s 762 mmHg 31%
05:00 +6°C° 0 mm 1 m/s 762 mmHg 33%
06:00 +8°C° 0 mm 1 m/s 763 mmHg 28%
07:00 +10°C° 0 mm 1 m/s 763 mmHg 24%
08:00 +12°C° 0 mm 1 m/s 763 mmHg 20%
09:00 +15°C° 0 mm 2 m/s 763 mmHg 17%
10:00 +17°C° 0 mm 3 m/s 762 mmHg 14%
11:00 +20°C° 0 mm 4 m/s 762 mmHg 11%
12:00 +21°C° 0 mm 4 m/s 761 mmHg 10%
13:00 +22°C° 0 mm 5 m/s 760 mmHg 9%
14:00 +23°C° 0 mm 5 m/s 759 mmHg 9%
15:00 +23°C° 0 mm 5 m/s 759 mmHg 9%
16:00 +23°C° 0 mm 5 m/s 758 mmHg 10%
17:00 +22°C° 0 mm 4 m/s 758 mmHg 10%
18:00 +20°C° 0 mm 4 m/s 758 mmHg 12%
19:00 +18°C° 0 mm 3 m/s 758 mmHg 15%
20:00 +16°C° 0 mm 3 m/s 758 mmHg 17%
21:00 +14°C° 0 mm 3 m/s 758 mmHg 19%
22:00 +14°C° 0 mm 2 m/s 758 mmHg 21%
23:00 +14°C° 0 mm 2 m/s 758 mmHg 23%

Mâine, 15 Aprilie, Joi

Timp Temperatura Precipitaţii Vânt Presiune Umiditate
00:00 +13°C° 0 mm 2 m/s 758 mmHg 24%
01:00 +12°C° 0 mm 1 m/s 757 mmHg 26%
02:00 +11°C° 0 mm 1 m/s 757 mmHg 27%
03:00 +11°C° 0 mm 1 m/s 757 mmHg 30%
04:00 +11°C° 0 mm 1 m/s 756 mmHg 34%
05:00 +9°C° 0 mm 2 m/s 756 mmHg 37%
06:00 +12°C° 0 mm 2 m/s 756 mmHg 41%
07:00 +13°C° 0 mm 3 m/s 756 mmHg 45%
08:00 +15°C° 0 mm 4 m/s 756 mmHg 48%
09:00 +18°C° 0 mm 4 m/s 755 mmHg 44%
10:00 +19°C° 0 mm 5 m/s 754 mmHg 39%
11:00 +21°C° 0 mm 6 m/s 753 mmHg 34%
12:00 +23°C° 0 mm 7 m/s 752 mmHg 31%
13:00 +24°C° 0 mm 8 m/s 750 mmHg 28%
14:00 +26°C° 0 mm 10 m/s 749 mmHg 25%
15:00 +24°C° 0 mm 10 m/s 748 mmHg 20%
16:00 +23°C° 0 mm 10 m/s 748 mmHg 15%
17:00 +21°C° 0 mm 10 m/s 747 mmHg 11%
18:00 +18°C° 0 mm 10 m/s 749 mmHg 15%
19:00 +16°C° 0 mm 10 m/s 750 mmHg 19%
20:00 +12°C° 0 mm 10 m/s 752 mmHg 23%
21:00 +12°C° 0 mm 10 m/s 752 mmHg 23%
22:00 +11°C° 0 mm 11 m/s 752 mmHg 24%
23:00 +9°C° 0 mm 11 m/s 752 mmHg 25%

Poimâine, 16 Aprilie, Vineri

Timp Temperatura Precipitaţii Vânt Presiune Umiditate
00:00 +9°C° 0 mm 11 m/s 752 mmHg 25%
01:00 +8°C° 0 mm 10 m/s 753 mmHg 25%
02:00 +8°C° 0 mm 9 m/s 753 mmHg 25%
03:00 +7°C° 0 mm 8 m/s 754 mmHg 25%
04:00 +8°C° 0 mm 7 m/s 754 mmHg 25%
05:00 +7°C° 0 mm 5 m/s 755 mmHg 24%
06:00 +9°C° 0 mm 6 m/s 755 mmHg 22%
07:00 +10°C° 0 mm 7 m/s 756 mmHg 19%
08:00 +11°C° 0 mm 8 m/s 756 mmHg 16%
09:00 +12°C° 0 mm 8 m/s 757 mmHg 15%
10:00 +15°C° 0 mm 8 m/s 757 mmHg 13%
11:00 +16°C° 0 mm 8 m/s 757 mmHg 12%
12:00 +17°C° 0 mm 9 m/s 756 mmHg 11%
13:00 +17°C° 0 mm 9 m/s 756 mmHg 10%
14:00 +18°C° 0 mm 10 m/s 756 mmHg 8%
15:00 +18°C° 0 mm 9 m/s 756 mmHg 9%
16:00 +17°C° 0 mm 9 m/s 756 mmHg 9%
17:00 +17°C° 0 mm 8 m/s 757 mmHg 9%
18:00 +15°C° 0 mm 6 m/s 758 mmHg 10%
19:00 +13°C° 0 mm 4 m/s 759 mmHg 11%
20:00 +12°C° 0 mm 2 m/s 760 mmHg 12%
21:00 +10°C° 0 mm 3 m/s 760 mmHg 14%
22:00 +10°C° 0 mm 3 m/s 761 mmHg 16%
23:00 +9°C° 0 mm 3 m/s 761 mmHg 18%

17 Aprilie, Sâmbătă

Timp Temperatura Precipitaţii Vânt Presiune Umiditate
00:00 +9°C° 0 mm 3 m/s 761 mmHg 19%
01:00 +7°C° 0 mm 4 m/s 761 mmHg 20%
02:00 +7°C° 0 mm 4 m/s 762 mmHg 22%
03:00 +6°C° 0 mm 4 m/s 762 mmHg 24%
04:00 +6°C° 0 mm 4 m/s 762 mmHg 26%
05:00 +5°C° 0 mm 4 m/s 763 mmHg 28%
06:00 +7°C° 0 mm 5 m/s 763 mmHg 24%
07:00 +9°C° 0 mm 6 m/s 764 mmHg 21%
08:00 +11°C° 0 mm 7 m/s 764 mmHg 18%
09:00 +12°C° 0 mm 7 m/s 764 mmHg 16%
10:00 +15°C° 0 mm 7 m/s 764 mmHg 14%
11:00 +16°C° 0 mm 7 m/s 764 mmHg 11%
12:00 +17°C° 0 mm 6 m/s 764 mmHg 11%
13:00 +19°C° 0 mm 6 m/s 763 mmHg 10%
14:00 +20°C° 0 mm 6 m/s 763 mmHg 9%
15:00 +20°C° 0 mm 5 m/s 762 mmHg 9%
16:00 +20°C° 0 mm 5 m/s 762 mmHg 9%
17:00 +20°C° 0 mm 5 m/s 762 mmHg 9%
18:00 +18°C° 0 mm 4 m/s 763 mmHg 10%
19:00 +16°C° 0 mm 3 m/s 763 mmHg 12%
20:00 +14°C° 0 mm 1 m/s 763 mmHg 13%
21:00 +13°C° 0 mm 1 m/s 763 mmHg 14%
22:00 +12°C° 0 mm 1 m/s 764 mmHg 15%
23:00 +12°C° 0 mm 2 m/s 764 mmHg 16%

18 Aprilie, Duminică

Timp Temperatura Precipitaţii Vânt Presiune Umiditate
00:00 +10°C° 0 mm 2 m/s 764 mmHg 17%
01:00 +10°C° 0 mm 2 m/s 764 mmHg 18%
02:00 +9°C° 0 mm 2 m/s 764 mmHg 19%
03:00 +9°C° 0 mm 2 m/s 764 mmHg 20%
04:00 +8°C° 0 mm 2 m/s 764 mmHg 21%
05:00 +9°C° 0 mm 1 m/s 763 mmHg 22%
06:00 +10°C° 0 mm 2 m/s 764 mmHg 20%
07:00 +13°C° 0 mm 2 m/s 764 mmHg 19%
08:00 +15°C° 0 mm 2 m/s 764 mmHg 17%
09:00 +17°C° 0 mm 2 m/s 763 mmHg 16%
10:00 +20°C° 0 mm 3 m/s 763 mmHg 14%
11:00 +22°C° 0 mm 3 m/s 762 mmHg 13%
12:00 +23°C° 0 mm 4 m/s 761 mmHg 12%
13:00 +26°C° 0 mm 4 m/s 760 mmHg 11%
14:00 +27°C° 0 mm 4 m/s 759 mmHg 10%
15:00 +27°C° 0 mm 4 m/s 759 mmHg 10%
16:00 +27°C° 0 mm 5 m/s 758 mmHg 10%
17:00 +27°C° 0 mm 5 m/s 758 mmHg 10%
18:00 +23°C° 0 mm 4 m/s 758 mmHg 13%
19:00 +21°C° 0 mm 3 m/s 758 mmHg 16%
20:00 +18°C° 0 mm 2 m/s 758 mmHg 19%
21:00 +18°C° 0 mm 2 m/s 758 mmHg 21%
22:00 +17°C° 0 mm 2 m/s 758 mmHg 23%
23:00 +16°C° 0 mm 2 m/s 759 mmHg 25%

19 Aprilie, Luni

Timp Temperatura Precipitaţii Vânt Presiune Umiditate
00:00 +15°C° 0 mm 1 m/s 758 mmHg 27%
01:00 +15°C° 0 mm 1 m/s 758 mmHg 29%
02:00 +14°C° 0 mm 1 m/s 758 mmHg 31%
03:00 +14°C° 0 mm 1 m/s 758 mmHg 33%
04:00 +13°C° 0 mm 1 m/s 758 mmHg 35%
05:00 +13°C° 0 mm 1 m/s 758 mmHg 38%
06:00 +14°C° 0 mm 1 m/s 758 mmHg 37%
07:00 +16°C° 0 mm 2 m/s 758 mmHg 35%
08:00 +18°C° 0 mm 2 m/s 759 mmHg 34%
09:00 +20°C° 0 mm 2 m/s 758 mmHg 32%
10:00 +23°C° 0 mm 2 m/s 758 mmHg 30%
11:00 +24°C° 0 mm 3 m/s 758 mmHg 28%
12:00 +26°C° 0 mm 3 m/s 757 mmHg 26%
13:00 +27°C° 0 mm 3 m/s 757 mmHg 24%
14:00 +29°C° 0 mm 4 m/s 756 mmHg 21%
15:00 +29°C° 0 mm 4 m/s 756 mmHg 21%
16:00 +30°C° 0 mm 4 m/s 755 mmHg 21%
17:00 +30°C° 0 mm 4 m/s 755 mmHg 21%
18:00 +27°C° 0 mm 4 m/s 755 mmHg 24%
19:00 +25°C° 0 mm 3 m/s 756 mmHg 28%
20:00 +23°C° 0 mm 2 m/s 756 mmHg 32%
21:00 +21°C° 0 mm 2 m/s 756 mmHg 33%
22:00 +21°C° 0 mm 2 m/s 757 mmHg 33%
23:00 +20°C° 0 mm 2 m/s 757 mmHg 34%
Arată mai mult

Formular de consimțământ

Meteoprog și furnizorii noștri de servicii pot stoca și accesa date personale, precum cookies, identificatori de dispozitiv sau alte tehnologii similare pe dispozitivul dumneavoastră și procesa astfel de date pentru a personaliza conținutul și reclamele, dar și pentru a oferi caracteristici de social media și pentru a analiza traficul.

  • Stocarea și/sau accesarea informațiilor pe dispozitivul dumneavoastră

    Cookies, identificatori de dispozitiv sau alte informații pot fi stocate sau accesate pe dispozitiv în scopurile indicate mai sus.

  • Reclame și conținut personalizat, evaluarea reclamelor și a conținutului, informații despre audiențe și dezvoltarea produselor

    Reclamele și conținutul pot fi personalizate pe baza unui profil. Pot fi adăugate date suplimentare pentru a personaliza mai bine reclamele și conținutul. Performanța reclamelor și conținutului poate fi măsurată. Pot fi obținute informații despre utilizatorii care au văzut reclamele și conținutul. Aceste date pot fi utilizate pentru a dezvolta sau îmbunătăți experiența utilizatorilor, sistemele și software-ul.

Dând clic pe ‘Sunt de acord’, permiteți utilizarea cookie-urilor menționate, a identificatorilor de dispozitiv, balizelor web sau altor tehnologii similare. Setările pot fi modificate din browser-ul dispozitivului dumneavoastră.

În anumite scopuri, interesele legitime pot prima asupra consimțământului. Puteți citi mai multe informații în acest sens în Politica privind Confidențialitatea Datelor și Cookie.